platform_code,time,latitude,longitude,sst,slp,observation_depth
,UTC,degrees_north,degrees_east,Deg C,hPa,
4101697,2020-02-10T09:59:00Z,12.0004,-57.6804,27.17,1016.5,0.0
4101697,2020-02-10T11:00:00Z,12.0112,-57.696,27.15,1017.1,0.0
4101697,2020-02-10T12:00:00Z,12.0222,-57.7128,27.17,1018.0,0.0
4101697,2020-02-10T13:00:00Z,12.0334,-57.7298,27.18,1018.6,0.0
4101697,2020-02-10T13:59:00Z,12.0436,-57.7484,27.19,1018.9,0.0
4101697,2020-02-10T15:00:00Z,12.0524,-57.7664,27.22,1018.6,0.0
4101697,2020-02-10T16:00:00Z,12.0606,-57.7856,27.24,1017.9,0.0
4101697,2020-02-10T17:00:00Z,12.0692,-57.8042,27.26,1017.1,0.0
4101697,2020-02-10T17:59:00Z,12.0776,-57.8224,27.25,1016.2,0.0
4101697,2020-02-10T19:00:00Z,12.0856,-57.8388,27.26,1015.5,0.0
4101697,2020-02-10T20:00:00Z,12.0934,-57.8544,27.25,1015.5,0.0
4101697,2020-02-10T21:00:00Z,12.101,-57.8694,27.24,1015.5,0.0
4101697,2020-02-10T22:00:00Z,12.1088,-57.8872,27.23,1015.7,0.0
4101697,2020-02-10T23:00:00Z,12.1174,-57.907,27.22,1016.1,0.0
4101697,2020-02-10T23:59:00Z,12.1266,-57.9302,27.18,1016.4,0.0
4101697,2020-02-11T01:00:00Z,12.1354,-57.9544,27.19,1017.1,0.0
4101697,2020-02-11T01:59:00Z,12.1424,-57.9776,27.17,1017.8,0.0
4101697,2020-02-11T03:00:00Z,12.1478,-57.9968,27.14,1017.9,0.0
4101697,2020-02-11T04:00:00Z,12.1532,-58.0136,27.14,1017.1,0.0
4101697,2020-02-11T05:00:00Z,12.1578,-58.0302,27.13,1016.7,0.0
4101697,2020-02-11T06:00:00Z,12.1626,-58.0484,27.13,1015.8,0.0
4101697,2020-02-11T07:00:00Z,12.168,-58.0686,27.13,1015.0,0.0
4101697,2020-02-11T08:00:00Z,12.174,-58.0886,27.13,1014.9,0.0
4101697,2020-02-11T09:00:00Z,12.18,-58.1084,27.12,1015.2,0.0
4101697,2020-02-11T09:59:00Z,12.1862,-58.1294,27.11,1015.6,0.0
4101697,2020-02-11T11:00:00Z,12.1922,-58.1494,27.11,1016.0,0.0
4101697,2020-02-11T11:59:00Z,12.198,-58.169,27.11,1016.8,0.0
4101697,2020-02-11T13:00:00Z,12.2032,-58.1852,27.14,1017.5,0.0
4101697,2020-02-11T14:00:00Z,12.2096,-58.2038,27.15,1017.8,0.0
4101697,2020-02-11T15:00:00Z,12.2148,-58.2232,27.17,1017.5,0.0
4101697,2020-02-11T16:00:00Z,12.2202,-58.2442,27.18,1017.1,0.0
4101697,2020-02-11T17:00:00Z,12.226,-58.2656,27.22,1016.4,0.0
4101697,2020-02-11T18:00:00Z,12.2322,-58.2882,27.23,1015.4,0.0
4101697,2020-02-11T19:00:00Z,12.2384,-58.308,27.23,1014.6,0.0
4101697,2020-02-11T19:59:00Z,12.2454,-58.328,27.22,1014.3,0.0
4101697,2020-02-11T21:00:00Z,12.2518,-58.3466,27.2,1014.4,0.0
4101697,2020-02-11T21:59:00Z,12.256,-58.3628,27.19,1014.4,0.0
4101697,2020-02-11T23:00:00Z,12.2586,-58.3794,27.18,1014.9,0.0
4101697,2020-02-12T00:00:00Z,12.2624,-58.3984,27.16,1015.6,0.0
4101697,2020-02-12T01:00:00Z,12.268,-58.4166,27.17,1016.0,0.0
4101697,2020-02-12T01:59:00Z,12.2744,-58.4354,27.18,1016.2,0.0
4101697,2020-02-12T03:00:00Z,12.2816,-58.4536,27.18,1016.1,0.0
4101697,2020-02-12T03:59:00Z,12.2896,-58.472,27.17,1015.9,0.0
4101697,2020-02-12T05:00:00Z,12.296,-58.4888,27.17,1015.4,0.0
4101697,2020-02-12T06:00:00Z,12.3,-58.5044,27.17,1014.9,0.0
4101697,2020-02-12T07:00:00Z,12.3012,-58.5168,27.16,1014.4,0.0
4101697,2020-02-12T07:59:00Z,12.2996,-58.5268,27.15,1014.5,0.0
4101697,2020-02-12T09:00:00Z,12.2986,-58.5398,27.16,1014.5,0.0
4101697,2020-02-12T10:00:00Z,12.298,-58.5548,27.16,1014.6,0.0
4101697,2020-02-12T11:00:00Z,12.2984,-58.5696,27.15,1015.2,0.0
4101697,2020-02-12T11:58:00Z,12.3008,-58.5868,27.17,1015.9,0.0
4101697,2020-02-12T13:00:00Z,12.304,-58.6024,27.17,1016.6,0.0
4101697,2020-02-12T14:00:00Z,12.3096,-58.6196,27.18,1016.8,0.0
4101697,2020-02-12T15:00:00Z,12.3158,-58.6358,27.21,1016.8,0.0
4101697,2020-02-12T16:00:00Z,12.3204,-58.6506,27.22,1016.4,0.0
4101697,2020-02-12T17:00:00Z,12.3212,-58.6632,27.26,1015.8,0.0
4101697,2020-02-12T18:00:00Z,12.32,-58.6744,27.26,1014.8,0.0
4101697,2020-02-12T19:00:00Z,12.3196,-58.689,27.25,1014.3,0.0
4101697,2020-02-12T19:59:00Z,12.3208,-58.7048,27.24,1014.3,0.0
4101697,2020-02-12T21:00:00Z,12.3226,-58.7184,27.23,1014.2,0.0
4101697,2020-02-12T22:00:00Z,12.3246,-58.7318,27.22,1014.5,0.0
4101697,2020-02-12T23:00:00Z,12.3256,-58.7444,27.2,1014.9,0.0
4101697,2020-02-12T23:59:00Z,12.3274,-58.7564,27.18,1015.5,0.0
4101697,2020-02-13T01:00:00Z,12.3302,-58.766,27.14,1016.2,0.0
4101697,2020-02-13T01:59:00Z,12.3338,-58.7766,27.14,1016.4,0.0
4101697,2020-02-13T03:00:00Z,12.3372,-58.7888,27.15,1016.1,0.0
4101697,2020-02-13T04:00:00Z,12.3394,-58.7986,27.14,1016.0,0.0
4101697,2020-02-13T05:00:00Z,12.3412,-58.8086,27.14,1015.5,0.0
4101697,2020-02-13T05:59:00Z,12.3438,-58.8214,27.13,1014.8,0.0
4101697,2020-02-13T07:00:00Z,12.3478,-58.8332,27.13,1013.9,0.0
4101697,2020-02-13T07:58:00Z,12.3506,-58.8442,27.12,1013.7,0.0
4101697,2020-02-13T09:00:00Z,12.3522,-58.8532,27.14,1013.7,0.0
4101697,2020-02-13T09:59:00Z,12.3518,-58.862,27.13,1013.9,0.0
4101697,2020-02-13T11:00:00Z,12.3518,-58.87,27.13,1014.6,0.0
4101697,2020-02-13T11:59:00Z,12.353,-58.8802,27.13,1015.3,0.0
4101697,2020-02-13T13:00:00Z,12.3548,-58.8908,27.14,1016.1,0.0
4101697,2020-02-13T13:59:00Z,12.3572,-58.8996,27.15,1016.5,0.0
4101697,2020-02-13T15:00:00Z,12.3598,-58.9068,27.16,1016.2,0.0
4101697,2020-02-13T15:59:00Z,12.362,-58.9158,27.17,1015.7,0.0
4101697,2020-02-13T17:00:00Z,12.3644,-58.926,27.19,1014.9,0.0
4101697,2020-02-13T17:59:00Z,12.3668,-58.9378,27.19,1014.3,0.0
4101697,2020-02-13T19:00:00Z,12.3696,-58.9482,27.18,1014.1,0.0
4101697,2020-02-13T20:00:00Z,12.372,-58.9574,27.17,1013.7,0.0
4101697,2020-02-13T21:00:00Z,12.3742,-58.9632,27.17,1014.0,0.0
4101697,2020-02-13T21:59:00Z,12.3756,-58.971,27.14,1014.0,0.0
4101697,2020-02-13T23:00:00Z,12.3776,-58.9812,27.13,1014.2,0.0
4101697,2020-02-14T00:00:00Z,12.3816,-58.9938,27.13,1014.6,0.0
4101697,2020-02-14T01:00:00Z,12.3862,-59.0058,27.12,1015.2,0.0
4101697,2020-02-14T01:58:00Z,12.392,-59.0162,27.12,1016.0,0.0
4101697,2020-02-14T03:00:00Z,12.3988,-59.0244,27.12,1015.8,0.0
4101697,2020-02-14T04:00:00Z,12.4056,-59.0316,27.11,1015.4,0.0
4101697,2020-02-14T05:00:00Z,12.412,-59.0372,27.1,1014.4,0.0
4101697,2020-02-14T05:59:00Z,12.4174,-59.0412,27.1,1014.2,0.0
4101697,2020-02-14T07:00:00Z,12.42,-59.0456,27.09,1013.8,0.0
4101697,2020-02-14T08:00:00Z,12.4242,-59.051,27.09,1014.3,0.0
4101697,2020-02-14T09:00:00Z,12.4298,-59.0588,27.09,1014.5,0.0
4101697,2020-02-14T09:59:00Z,12.4362,-59.069,27.08,1015.0,0.0
4101697,2020-02-14T11:00:00Z,12.4416,-59.0794,27.08,1015.4,0.0
4101697,2020-02-14T12:00:00Z,12.4468,-59.0892,27.08,1015.8,0.0
4101697,2020-02-14T13:00:00Z,12.452,-59.0928,27.09,1017.2,0.0
4101697,2020-02-14T14:00:00Z,12.4574,-59.097,27.1,1017.3,0.0
4101697,2020-02-14T15:00:00Z,12.464,-59.1016,27.09,1017.2,0.0
4101697,2020-02-14T15:59:00Z,12.4708,-59.1056,27.11,1016.6,0.0
4101697,2020-02-14T17:00:00Z,12.477,-59.1094,27.08,1016.3,0.0
4101697,2020-02-14T18:00:00Z,12.4828,-59.1142,27.09,1015.8,0.0
4101697,2020-02-14T19:00:00Z,12.4886,-59.1196,27.09,1015.1,0.0
4101697,2020-02-14T19:59:00Z,12.494,-59.1248,27.09,1014.4,0.0
4101697,2020-02-14T21:00:00Z,12.4978,-59.1308,27.08,1015.1,0.0
4101697,2020-02-14T22:00:00Z,12.5004,-59.1388,27.07,1015.4,0.0
4101697,2020-02-15T01:00:00Z,12.507,-59.149,27.07,1016.5,0.0
4101697,2020-02-15T02:00:00Z,12.5132,-59.1546,27.06,1016.4,0.0
4101697,2020-02-15T03:00:00Z,12.5208,-59.1592,27.06,1016.6,0.0
4101697,2020-02-15T05:00:00Z,12.5398,-59.1662,27.03,1015.4,0.0
4101697,2020-02-15T05:59:00Z,12.5488,-59.1696,27.03,1014.5,0.0
4101697,2020-02-15T07:00:00Z,12.556,-59.1736,27.03,1014.2,0.0
4101697,2020-02-15T08:00:00Z,12.5632,-59.1798,27.03,1014.5,0.0
4101697,2020-02-15T09:00:00Z,12.568,-59.1838,27.03,1014.6,0.0
4101697,2020-02-15T09:59:00Z,12.571,-59.1856,27.03,1015.2,0.0
4101697,2020-02-15T11:00:00Z,12.575,-59.1862,27.03,1015.3,0.0
4101697,2020-02-15T11:59:00Z,12.5806,-59.1866,27.02,1015.2,0.0
4101697,2020-02-15T12:59:00Z,12.5876,-59.1908,26.98,1016.3,0.0
4101697,2020-02-15T13:59:00Z,12.5978,-59.1962,26.99,1016.4,0.0
4101697,2020-02-15T15:00:00Z,12.6072,-59.1998,26.99,1016.5,0.0
4101697,2020-02-15T16:00:00Z,12.617,-59.2036,26.99,1015.2,0.0
4101697,2020-02-15T17:00:00Z,12.627,-59.2066,27.0,1014.4,0.0
4101697,2020-02-15T17:59:00Z,12.6368,-59.2106,27.01,1014.3,0.0
4101697,2020-02-15T19:00:00Z,12.6446,-59.2136,27.03,1014.1,0.0
4101697,2020-02-15T19:58:00Z,12.6518,-59.2176,27.03,1013.9,0.0
4101697,2020-02-15T21:00:00Z,12.6578,-59.22,27.03,1014.1,0.0
4101697,2020-02-15T21:59:00Z,12.6634,-59.2214,27.02,1014.9,0.0
4101697,2020-02-15T23:00:00Z,12.6662,-59.2222,27.02,1014.8,0.0
4101697,2020-02-15T23:59:00Z,12.6678,-59.2242,27.02,1015.0,0.0
4101697,2020-02-16T01:00:00Z,12.6698,-59.228,27.02,1015.4,0.0
4101697,2020-02-16T01:59:00Z,12.6732,-59.2324,27.01,1015.7,0.0
4101697,2020-02-16T03:00:00Z,12.6792,-59.237,26.99,1014.7,0.0
4101697,2020-02-16T04:00:00Z,12.6856,-59.2422,27.01,1014.2,0.0
4101697,2020-02-16T04:59:00Z,12.6918,-59.2468,26.99,1013.8,0.0
4101697,2020-02-16T06:00:00Z,12.6988,-59.2504,26.98,1013.0,0.0
4101697,2020-02-16T07:00:00Z,12.7054,-59.2528,26.97,1012.9,0.0
4101697,2020-02-16T08:00:00Z,12.7126,-59.2548,26.96,1012.8,0.0
4101697,2020-02-16T09:00:00Z,12.7178,-59.2568,26.97,1012.6,0.0
4101697,2020-02-16T09:59:00Z,12.7232,-59.257,26.95,1013.4,0.0
4101697,2020-02-16T10:59:00Z,12.7274,-59.256,26.95,1013.8,0.0
4101697,2020-02-16T12:00:00Z,12.7306,-59.2558,26.96,1014.8,0.0
4101697,2020-02-16T13:00:00Z,12.7346,-59.2564,26.97,1015.3,0.0
4101697,2020-02-16T14:00:00Z,12.7384,-59.2574,27.01,1015.8,0.0
4101697,2020-02-16T14:59:00Z,12.743,-59.2584,27.0,1015.8,0.0
4101697,2020-02-16T16:00:00Z,12.749,-59.2608,27.03,1014.8,0.0
4101697,2020-02-16T17:00:00Z,12.7558,-59.2646,27.06,1013.9,0.0
4101697,2020-02-16T18:00:00Z,12.7618,-59.269,27.07,1013.4,0.0
4101697,2020-02-16T19:00:00Z,12.767,-59.2722,27.09,1013.0,0.0
4101697,2020-02-16T20:00:00Z,12.7716,-59.275,27.08,1012.8,0.0
4101697,2020-02-16T21:00:00Z,12.776,-59.2784,27.08,1013.1,0.0
4101697,2020-02-16T22:00:00Z,12.7806,-59.281,27.06,1013.1,0.0
4101697,2020-02-16T23:00:00Z,12.7848,-59.2822,27.07,1013.5,0.0
4101697,2020-02-17T00:00:00Z,12.7888,-59.2842,27.05,1014.2,0.0
4101697,2020-02-17T01:00:00Z,12.7924,-59.2866,27.03,1014.4,0.0
4101697,2020-02-17T02:00:00Z,12.7962,-59.2894,27.02,1014.6,0.0
4101697,2020-02-17T03:00:00Z,12.8018,-59.2924,27.03,1014.5,0.0
4101697,2020-02-17T03:59:00Z,12.8092,-59.295,27.02,1014.2,0.0
4101697,2020-02-17T05:00:00Z,12.816,-59.2968,27.02,1013.4,0.0
4101697,2020-02-17T05:59:00Z,12.821,-59.2988,27.02,1013.0,0.0
4101697,2020-02-17T07:00:00Z,12.8256,-59.2994,27.01,1012.3,0.0
4101697,2020-02-17T08:00:00Z,12.829,-59.2996,27.0,1012.2,0.0
4101697,2020-02-17T09:00:00Z,12.8308,-59.299,27.0,1012.6,0.0
4101697,2020-02-17T09:59:00Z,12.8322,-59.2974,27.0,1013.2,0.0
4101697,2020-02-17T11:00:00Z,12.8344,-59.2962,27.0,1014.0,0.0
4101697,2020-02-17T11:59:00Z,12.8354,-59.2954,27.0,1014.5,0.0
4101697,2020-02-17T13:00:00Z,12.8362,-59.2948,27.03,1015.3,0.0
4101697,2020-02-17T13:59:00Z,12.837,-59.2946,27.05,1015.7,0.0
4101697,2020-02-17T15:00:00Z,12.8394,-59.294,27.06,1015.6,0.0
4101697,2020-02-17T15:59:00Z,12.8404,-59.2944,27.1,1015.1,0.0
4101697,2020-02-17T17:00:00Z,12.8418,-59.2946,27.12,1014.5,0.0
4101697,2020-02-17T17:59:00Z,12.8444,-59.296,27.12,1013.7,0.0
4101697,2020-02-17T19:00:00Z,12.8468,-59.298,27.14,1013.0,0.0
4101697,2020-02-17T20:00:00Z,12.8478,-59.2998,27.14,1012.9,0.0
4101697,2020-02-17T21:00:00Z,12.8474,-59.3004,27.1,1013.2,0.0
4101697,2020-02-17T22:00:00Z,12.8482,-59.3004,27.09,1013.7,0.0
4101697,2020-02-17T23:00:00Z,12.8488,-59.2992,27.07,1014.3,0.0
4101697,2020-02-17T23:59:00Z,12.8494,-59.2992,27.08,1015.0,0.0
4101697,2020-02-18T01:00:00Z,12.8498,-59.3004,27.07,1015.3,0.0
4101697,2020-02-18T02:00:00Z,12.8498,-59.3024,27.07,1015.7,0.0
4101697,2020-02-18T03:00:00Z,12.8498,-59.3048,27.06,1015.6,0.0
4101697,2020-02-18T03:58:00Z,12.85,-59.3074,27.05,1015.4,0.0
4101697,2020-02-18T05:00:00Z,12.8508,-59.3098,27.05,1014.8,0.0
4101697,2020-02-18T05:59:00Z,12.852,-59.3132,27.05,1014.5,0.0
4101697,2020-02-18T07:00:00Z,12.8534,-59.3166,27.05,1014.0,0.0
4101697,2020-02-18T07:59:00Z,12.8552,-59.3204,26.99,1013.9,0.0
4101697,2020-02-18T09:00:00Z,12.8576,-59.3222,26.99,1014.1,0.0
4101697,2020-02-18T09:59:00Z,12.8598,-59.323,26.98,1014.7,0.0
4101697,2020-02-18T11:00:00Z,12.861,-59.3228,26.98,1015.3,0.0
4101697,2020-02-18T11:59:00Z,12.8618,-59.3226,27.0,1015.8,0.0
4101697,2020-02-18T13:00:00Z,12.8624,-59.322,26.98,1016.4,0.0
4101697,2020-02-18T13:59:00Z,12.8636,-59.322,27.01,1016.9,0.0
4101697,2020-02-18T15:00:00Z,12.865,-59.3216,27.03,1016.6,0.0
4101697,2020-02-18T16:00:00Z,12.867,-59.3212,27.06,1015.8,0.0
4101697,2020-02-18T17:00:00Z,12.8698,-59.3208,27.1,1015.2,0.0
4101697,2020-02-18T18:00:00Z,12.8728,-59.3216,27.08,1014.3,0.0
4101697,2020-02-18T19:00:00Z,12.8756,-59.3236,27.09,1013.9,0.0
4101697,2020-02-18T20:00:00Z,12.8794,-59.3254,27.09,1013.9,0.0
4101697,2020-02-18T20:59:00Z,12.8838,-59.3262,27.08,1014.1,0.0
4101697,2020-02-18T22:00:00Z,12.8884,-59.324,27.05,1014.1,0.0
4101697,2020-02-18T23:00:00Z,12.8922,-59.3202,27.06,1014.6,0.0
4101697,2020-02-18T23:59:00Z,12.8966,-59.3174,27.05,1015.3,0.0
4101697,2020-02-19T01:00:00Z,12.9004,-59.315,27.04,1015.9,0.0
4101697,2020-02-19T02:00:00Z,12.9034,-59.3138,27.04,1016.1,0.0
4101697,2020-02-19T03:00:00Z,12.9066,-59.3128,27.05,1015.9,0.0
4101697,2020-02-19T03:59:00Z,12.9104,-59.3144,27.02,1015.6,0.0
4101697,2020-02-19T05:00:00Z,12.9118,-59.3144,27.03,1014.8,0.0
4101697,2020-02-19T06:00:00Z,12.915,-59.3166,26.99,1014.0,0.0
4101697,2020-02-19T07:00:00Z,12.9158,-59.3198,26.99,1013.6,0.0
4101697,2020-02-19T07:59:00Z,12.915,-59.3224,26.98,1013.4,0.0
4101697,2020-02-19T09:00:00Z,12.9152,-59.325,26.98,1013.7,0.0
4101697,2020-02-19T10:00:00Z,12.9158,-59.3288,26.97,1014.2,0.0
4101697,2020-02-19T11:00:00Z,12.9174,-59.332,26.97,1015.0,0.0
4101697,2020-02-19T12:00:00Z,12.9196,-59.333,26.99,1015.6,0.0
4101697,2020-02-19T13:00:00Z,12.923,-59.3336,26.99,1016.4,0.0
4101697,2020-02-19T13:58:00Z,12.9278,-59.334,26.99,1016.7,0.0
4101697,2020-02-19T15:00:00Z,12.9338,-59.333,26.99,1016.4,0.0
4101697,2020-02-19T15:59:00Z,12.938,-59.331,26.99,1015.9,0.0
4101697,2020-02-19T17:00:00Z,12.9422,-59.328,27.0,1014.9,0.0
4101697,2020-02-19T18:00:00Z,12.946,-59.3268,26.99,1014.2,0.0
4101697,2020-02-19T19:00:00Z,12.9488,-59.3272,27.0,1013.5,0.0
4101697,2020-02-19T19:59:00Z,12.9516,-59.3284,26.99,1013.4,0.0
4101697,2020-02-19T21:00:00Z,12.9552,-59.33,26.99,1013.6,0.0
4101697,2020-02-19T22:00:00Z,12.9592,-59.331,26.97,1014.0,0.0
4101697,2020-02-19T23:00:00Z,12.964,-59.3324,26.95,1014.5,0.0
4101697,2020-02-19T23:58:00Z,12.9688,-59.3336,26.96,1015.2,0.0
4101697,2020-02-20T01:00:00Z,12.9728,-59.3332,26.95,1016.1,0.0
4101697,2020-02-20T01:59:00Z,12.9776,-59.3324,26.93,1016.4,0.0
4101697,2020-02-20T02:58:00Z,12.9824,-59.3316,26.92,1016.1,0.0
4101697,2020-02-20T04:00:00Z,12.987,-59.3306,26.93,1015.9,0.0
4101697,2020-02-20T05:00:00Z,12.9906,-59.3292,26.93,1014.9,0.0
4101697,2020-02-20T05:59:00Z,12.9924,-59.3286,26.92,1014.2,0.0
4101697,2020-02-20T07:00:00Z,12.9934,-59.3292,26.91,1013.6,0.0
4101697,2020-02-20T07:59:00Z,12.9942,-59.3304,26.91,1013.6,0.0
4101697,2020-02-20T09:00:00Z,12.9948,-59.3316,26.91,1013.7,0.0
4101697,2020-02-20T10:00:00Z,12.996,-59.3328,26.91,1013.9,0.0
4101697,2020-02-20T11:00:00Z,12.9976,-59.333,26.91,1014.4,0.0
4101697,2020-02-20T11:59:00Z,13.0002,-59.332,26.91,1015.2,0.0
4101697,2020-02-20T13:00:00Z,13.0026,-59.33,26.92,1015.9,0.0
4101697,2020-02-20T13:59:00Z,13.0054,-59.3266,26.94,1016.2,0.0
4101697,2020-02-20T15:00:00Z,13.0076,-59.3242,26.96,1015.8,0.0
4101697,2020-02-20T16:00:00Z,13.0088,-59.3232,26.97,1014.8,0.0
4101697,2020-02-20T17:00:00Z,13.0086,-59.3244,27.0,1013.9,0.0
4101697,2020-02-20T17:58:00Z,13.0084,-59.328,27.02,1013.1,0.0
4101697,2020-02-20T19:00:00Z,13.0074,-59.3314,27.02,1012.6,0.0
4101697,2020-02-20T19:59:00Z,13.0062,-59.336,27.02,1012.4,0.0
4101697,2020-02-20T21:00:00Z,13.0058,-59.3394,26.99,1012.5,0.0
4101697,2020-02-20T22:00:00Z,13.0056,-59.3442,26.98,1013.0,0.0
4101697,2020-02-20T23:00:00Z,13.0058,-59.346,26.98,1013.7,0.0
4101697,2020-02-21T00:00:00Z,13.0068,-59.3442,26.97,1014.3,0.0
4101697,2020-02-21T01:00:00Z,13.0088,-59.3408,26.97,1014.9,0.0
4101697,2020-02-21T01:59:00Z,13.012,-59.338,26.97,1015.1,0.0
4101697,2020-02-21T03:00:00Z,13.0152,-59.336,26.95,1015.0,0.0
4101697,2020-02-21T04:00:00Z,13.0178,-59.3354,26.95,1014.7,0.0
4101697,2020-02-21T05:00:00Z,13.0194,-59.3344,26.95,1014.2,0.0
4101697,2020-02-21T06:00:00Z,13.0194,-59.3336,26.94,1013.5,0.0
4101697,2020-02-21T06:59:00Z,13.0176,-59.3334,26.94,1012.9,0.0
4101697,2020-02-21T08:00:00Z,13.015,-59.3338,26.93,1012.8,0.0
4101697,2020-02-21T09:00:00Z,13.012,-59.3336,26.93,1013.1,0.0
4101697,2020-02-21T10:00:00Z,13.0098,-59.333,26.9,1013.6,0.0
4101697,2020-02-21T10:59:00Z,13.008,-59.3314,26.9,1014.5,0.0
4101697,2020-02-21T12:00:00Z,13.0058,-59.3288,26.91,1015.2,0.0
4101697,2020-02-21T13:00:00Z,13.0034,-59.325,26.93,1015.9,0.0
4101697,2020-02-21T14:00:00Z,13.0026,-59.3208,26.95,1016.5,0.0
4101697,2020-02-21T14:59:00Z,13.003,-59.3162,26.99,1016.2,0.0
4101697,2020-02-21T16:00:00Z,13.0046,-59.3126,27.03,1015.4,0.0
4101697,2020-02-21T17:00:00Z,13.007,-59.3106,27.09,1014.5,0.0
4101697,2020-02-21T17:59:00Z,13.0086,-59.309,27.14,1013.7,0.0
4101697,2020-02-21T19:00:00Z,13.0096,-59.3084,27.2,1013.1,0.0
4101697,2020-02-21T19:59:00Z,13.01,-59.3092,27.19,1013.3,0.0
4101697,2020-02-21T21:00:00Z,13.01,-59.3096,27.14,1013.5,0.0
4101697,2020-02-21T22:00:00Z,13.0086,-59.31,27.11,1013.9,0.0
4101697,2020-02-22T00:00:00Z,13.0086,-59.3114,27.07,1014.9,0.0
4101697,2020-02-22T01:00:00Z,13.0096,-59.3098,27.03,1015.4,0.0
4101697,2020-02-22T02:00:00Z,13.01,-59.3078,27.03,1015.7,0.0
4101697,2020-02-22T03:00:00Z,13.0104,-59.3058,27.02,1015.5,0.0
4101697,2020-02-22T04:00:00Z,13.0104,-59.3028,27.0,1015.1,0.0
4101697,2020-02-22T04:59:00Z,13.0106,-59.3008,26.97,1014.5,0.0
4101697,2020-02-22T06:00:00Z,13.0096,-59.3014,26.97,1013.8,0.0
4101697,2020-02-22T06:59:00Z,13.0076,-59.3016,26.96,1013.2,0.0
4101697,2020-02-22T08:00:00Z,13.0048,-59.3012,26.95,1013.1,0.0
4101697,2020-02-22T09:00:00Z,13.0022,-59.3,26.94,1013.2,0.0
4101697,2020-02-22T09:59:00Z,12.9992,-59.3,26.92,1013.7,0.0
4101697,2020-02-22T11:00:00Z,12.9964,-59.2998,26.94,1014.6,0.0
4101697,2020-02-22T11:59:00Z,12.9936,-59.3,26.94,1015.3,0.0
4101697,2020-02-22T13:00:00Z,12.992,-59.2988,26.97,1015.9,0.0
4101697,2020-02-22T13:59:00Z,12.9906,-59.2972,27.0,1016.2,0.0
4101697,2020-02-22T15:00:00Z,12.9904,-59.2956,27.05,1016.0,0.0
4101697,2020-02-22T16:00:00Z,12.9916,-59.2932,27.13,1015.4,0.0
4101697,2020-02-22T17:00:00Z,12.9922,-59.2916,27.28,1014.5,0.0
4101697,2020-02-22T17:59:00Z,12.9916,-59.2904,27.39,1013.7,0.0
4101697,2020-02-22T19:00:00Z,12.9906,-59.2894,27.41,1013.3,0.0
4101697,2020-02-22T20:00:00Z,12.9894,-59.2886,27.43,1013.2,0.0
4101697,2020-02-22T21:00:00Z,12.9866,-59.2884,27.42,1013.5,0.0
4101697,2020-02-22T22:00:00Z,12.9836,-59.2896,27.34,1013.5,0.0
4101697,2020-02-22T23:00:00Z,12.9818,-59.291,27.28,1013.9,0.0
4101697,2020-02-23T00:00:00Z,12.9794,-59.2914,27.22,1014.7,0.0
4101697,2020-02-23T01:00:00Z,12.9776,-59.2906,27.2,1015.3,0.0
4101697,2020-02-23T02:00:00Z,12.977,-59.29,27.16,1015.4,0.0
4101697,2020-02-23T03:00:00Z,12.9768,-59.288,27.15,1015.2,0.0
4101697,2020-02-23T04:00:00Z,12.9754,-59.285,27.13,1015.0,0.0
4101697,2020-02-23T05:00:00Z,12.9736,-59.2818,27.11,1014.3,0.0
4101697,2020-02-23T06:00:00Z,12.9716,-59.279,27.08,1013.5,0.0
4101697,2020-02-23T07:00:00Z,12.9688,-59.2766,27.06,1013.2,0.0
4101697,2020-02-23T08:00:00Z,12.966,-59.2758,27.04,1013.0,0.0
4101697,2020-02-23T09:00:00Z,12.9628,-59.2764,27.02,1013.4,0.0
4101697,2020-02-23T10:00:00Z,12.9576,-59.2788,27.01,1014.0,0.0
4101697,2020-02-23T11:00:00Z,12.9524,-59.2816,27.0,1014.5,0.0
4101697,2020-02-23T12:00:00Z,12.9486,-59.2836,27.01,1015.2,0.0
4101697,2020-02-23T13:00:00Z,12.945,-59.2844,27.03,1015.8,0.0
4101697,2020-02-23T14:00:00Z,12.942,-59.2848,27.06,1015.9,0.0
4101697,2020-02-23T15:00:00Z,12.9392,-59.2852,27.09,1015.7,0.0
4101697,2020-02-23T15:59:00Z,12.9374,-59.285,27.13,1015.0,0.0
4101697,2020-02-23T17:00:00Z,12.9368,-59.2846,27.21,1014.3,0.0
4101697,2020-02-23T18:00:00Z,12.9362,-59.2836,27.23,1013.4,0.0
4101697,2020-02-23T19:00:00Z,12.9358,-59.2836,27.24,1012.8,0.0
4101697,2020-02-23T19:59:00Z,12.9352,-59.2834,27.18,1012.3,0.0
4101697,2020-02-23T21:00:00Z,12.9342,-59.2842,27.15,1012.5,0.0
4101697,2020-02-23T22:00:00Z,12.9322,-59.2866,27.13,1012.8,0.0
4101697,2020-02-23T23:00:00Z,12.9306,-59.2904,27.13,1013.2,0.0
4101697,2020-02-24T00:00:00Z,12.9298,-59.2928,27.11,1013.8,0.0
4101697,2020-02-24T01:00:00Z,12.9292,-59.2926,27.1,1014.5,0.0
4101697,2020-02-24T01:59:00Z,12.9298,-59.2912,27.08,1015.0,0.0
4101697,2020-02-24T03:00:00Z,12.9302,-59.2868,27.08,1014.9,0.0
4101697,2020-02-24T04:00:00Z,12.9288,-59.2812,27.07,1014.8,0.0
4101697,2020-02-24T05:00:00Z,12.927,-59.2752,27.07,1014.4,0.0
4101697,2020-02-24T06:00:00Z,12.9248,-59.2704,27.05,1013.9,0.0
4101697,2020-02-24T07:00:00Z,12.9228,-59.2668,27.06,1013.5,0.0
4101697,2020-02-24T07:59:00Z,12.9206,-59.2642,27.05,1013.1,0.0
4101697,2020-02-24T09:00:00Z,12.9178,-59.2634,27.04,1013.0,0.0
4101697,2020-02-24T09:59:00Z,12.914,-59.264,27.05,1013.8,0.0
4101697,2020-02-24T11:00:00Z,12.9096,-59.264,27.03,1014.4,0.0
4101697,2020-02-24T12:00:00Z,12.9056,-59.2632,27.03,1015.1,0.0
4101697,2020-02-24T13:00:00Z,12.9024,-59.2614,27.03,1015.7,0.0
4101697,2020-02-24T13:59:00Z,12.899,-59.2592,27.08,1016.4,0.0
4101697,2020-02-24T15:00:00Z,12.8958,-59.256,27.09,1016.3,0.0
4101697,2020-02-24T16:00:00Z,12.8924,-59.2512,27.14,1015.9,0.0
4101697,2020-02-24T17:00:00Z,12.89,-59.2454,27.18,1015.3,0.0
4101697,2020-02-24T18:00:00Z,12.8878,-59.2412,27.21,1014.1,0.0
4101697,2020-02-24T19:00:00Z,12.886,-59.2388,27.22,1013.3,0.0
4101697,2020-02-24T19:59:00Z,12.8858,-59.2368,27.23,1013.1,0.0
4101697,2020-02-24T21:00:00Z,12.8866,-59.2372,27.2,1013.2,0.0
4101697,2020-02-24T22:00:00Z,12.8872,-59.2374,27.17,1013.3,0.0
4101697,2020-02-24T23:00:00Z,12.8856,-59.2358,27.15,1014.0,0.0
4101697,2020-02-24T23:59:00Z,12.8828,-59.2334,27.14,1014.8,0.0
4101697,2020-02-25T01:00:00Z,12.8796,-59.2302,27.14,1015.3,0.0
4101697,2020-02-25T02:00:00Z,12.8756,-59.2258,27.12,1015.3,0.0
4101697,2020-02-25T03:00:00Z,12.8712,-59.2208,27.11,1015.4,0.0
4101697,2020-02-25T03:59:00Z,12.8664,-59.2158,27.11,1015.2,0.0
4101697,2020-02-25T05:00:00Z,12.86,-59.2112,27.1,1014.6,0.0
4101697,2020-02-25T06:00:00Z,12.854,-59.2082,27.09,1014.0,0.0
4101697,2020-02-25T06:59:00Z,12.8496,-59.2066,27.08,1013.6,0.0
4101697,2020-02-25T08:00:00Z,12.847,-59.2058,27.06,1013.4,0.0
4101697,2020-02-25T08:59:00Z,12.8458,-59.2064,27.08,1013.7,0.0
4101697,2020-02-25T10:00:00Z,12.8446,-59.2052,27.08,1014.2,0.0
4101697,2020-02-25T11:00:00Z,12.8426,-59.2038,27.07,1014.8,0.0
4101697,2020-02-25T12:00:00Z,12.8392,-59.2008,27.08,1015.4,0.0
4101697,2020-02-25T13:00:00Z,12.8332,-59.1968,27.09,1016.0,0.0
4101697,2020-02-25T13:59:00Z,12.8258,-59.1926,27.12,1016.4,0.0
4101697,2020-02-25T15:00:00Z,12.8182,-59.1874,27.17,1016.2,0.0
4101697,2020-02-25T16:00:00Z,12.8106,-59.1838,27.22,1015.5,0.0
4101697,2020-02-25T17:00:00Z,12.8036,-59.18,27.29,1014.9,0.0
4101697,2020-02-25T18:00:00Z,12.797,-59.1764,27.36,1014.1,0.0
4101697,2020-02-25T19:00:00Z,12.7918,-59.1742,27.36,1013.3,0.0
4101697,2020-02-25T20:00:00Z,12.7882,-59.1716,27.37,1013.1,0.0
4101697,2020-02-25T21:00:00Z,12.7842,-59.169,27.34,1013.2,0.0
4101697,2020-02-25T22:00:00Z,12.7804,-59.1664,27.29,1013.6,0.0
4101697,2020-02-25T23:00:00Z,12.7768,-59.1638,27.25,1013.7,0.0
4101697,2020-02-26T00:00:00Z,12.7718,-59.1598,27.22,1014.4,0.0
4101697,2020-02-26T01:00:00Z,12.7664,-59.1554,27.19,1014.8,0.0
4101697,2020-02-26T01:59:00Z,12.7602,-59.1528,27.18,1015.2,0.0
4101697,2020-02-26T03:00:00Z,12.752,-59.1504,27.16,1014.9,0.0
4101697,2020-02-26T04:00:00Z,12.7434,-59.1468,27.14,1014.6,0.0
4101697,2020-02-26T04:59:00Z,12.7352,-59.1408,27.13,1013.9,0.0
4101697,2020-02-26T06:00:00Z,12.7284,-59.1362,27.13,1013.2,0.0
4101697,2020-02-26T06:59:00Z,12.7232,-59.1334,27.11,1012.8,0.0
4101697,2020-02-26T08:00:00Z,12.7182,-59.1308,27.1,1012.8,0.0
4101697,2020-02-26T09:00:00Z,12.713,-59.129,27.1,1013.0,0.0
4101697,2020-02-26T09:59:00Z,12.7052,-59.126,27.08,1013.8,0.0
4101697,2020-02-26T11:00:00Z,12.6962,-59.123,27.09,1014.6,0.0